Temperature
21 21 22 21 21 21 20 20 20 20 20 20 20 20 20 20 20 20 20 20 19 19 19 19 18 18 18 18 18 18 18 18 18 18 18 18 18 18 17 17 17 16 17
21 21 22 22 21 21 21 21 20 20 20 20 20 20 20 20 20 20 20 20 19 19 19 18 18 18 18 18 18 18 18 18 18 18 18 18 18 18 17 17 17 17 17
21 21 22 22 21 21 21 21 21 20 20 20 20 20 20 20 19 20 20 20 19 19 19 18 18 18 19 19 19 19 18 18 18 18 17 17 17 18 18 17 17 17 17
21 21 21 21 21 21 21 21 21 20 20 20 20 20 20 20 20 19 20 19 19 19 19 19 19 19 19 19 19 19 19 18 18 17 17 17 17 18 18 18 17 17 17
21 20 21 21 21 21 21 21 21 21 20 20 20 20 20 20 20 20 20 19 19 19 19 19 19 19 19 19 19 19 19 18 18 17 17 17 17 18 18 18 17 17 17
21 20 21 21 21 21 21 21 21 21 20 20 20 20 20 20 20 20 20 19 19 19 19 19 19 19 20 19 19 19 19 19 18 18 17 17 17 18 18 18 18 17 17
21 20 20 21 20 20 20 20 20 20 20 20 20 20 20 20 20 20 19 19 19 19 19 19 19 19 19 19 19 19 19 19 17 18 17 17 17 18 18 18 18 18 18
21 20 19 20 20 20 20 20 20 20 20 20 20 20 20 20 19 19 19 19 19 19 19 19 19 19 19 19 19 19 19 19 18 18 17 17 17 18 18 18 18 18 18
21 21 19 19 20 20 20 20 20 20 20 20 20 20 20 20 19 19 19 19 19 19 19 19 19 19 19 19 19 19 19 19 17 18 18 18 18 18 18 18 18 18 18
21 20 19 19 19 19 19 20 20 20 20 20 20 20 20 20 20 19 19 19 19 19 19 19 19 19 19 19 19 19 19 18 18 18 18 18 18 18 18 18 18 17 17
20 20 19 19 19 19 19 19 20 20 20 20 20 20 20 19 19 19 19 19 19 19 19 19 19 19 19 18 18 18 18 17 18 18 18 18 18 18 18 18 18 17 17
20 20 20 20 19 19 19 19 19 19 19 19 18 18 19 18 18 18 18 19 19 19 19 19 18 18 18 17 17 18 17 17 18 18 18 18 18 18 18 18 18 17 17
20 20 19 19 19 19 19 18 18 18 18 18 18 18 18 18 18 18 18 18 18 18 18 18 18 17 17 17 17 17 17 18 18 18 18 18 18 18 18 18 18 17 17
20 19 19 18 18 18 18 18 18 18 18 18 18 18 18 18 18 18 18 18 18 18 17 17 18 17 17 17 17 17 17 18 18 18 18 18 18 18 18 18 18 18 17
18 18 18 18 18 18 18 18 18 18 18 18 18 17 17 18 18 18 18 18 18 18 18 17 17 17 17 17 17 17 17 17 18 18 18 18 18 18 18 18 18 18 18
17 17 17 17 17 18 18 18 18 17 17 17 17 17 17 17 17 17 17 17 17 17 17 17 17 17 17 17 17 17 17 17 18 18 18 18 18 18 18 18 18 18 18
17 17 17 17 17 17 17 17 17 17 17 17 16 16 16 16 17 17 17 17 17 17 17 17 17 17 17 17 17 17 17 17 17 17 17 17 17 18 18 18 18 18 18
16 17 17 16 17 17 17 17 17 17 16 16 16 16 16 16 16 16 16 17 17 17 17 17 17 17 17 17 17 17 17 17 17 17 17 17 17 17 17 18 18 18 18
16 16 16 16 17 17 17 17 16 16 16 16 16 16 15 15 16 16 16 16 17 17 17 17 17 17 17 17 17 17 17 17 17 17 17 17 17 17 17 17 17 18 17
16 16 16 16 17 16 16 16 16 16 16 15 15 15 15 15 15 15 16 16 16 16 16 17 17 16 17 17 17 17 17 17 17 17 17 17 17 17 17 17 17 17 17
16 16 16 16 16 17 16 16 15 15 15 15 15 15 15 15 15 15 15 15 16 16 16 16 16 16 16 16 16 17 17 17 17 17 17 17 17 17 17 17 17 17 17
16 16 16 16 16 16 16 15 15 15 15 15 15 15 15 15 15 15 15 15 15 16 16 16 16 16 17 16 16 17 18 18 17 17 17 16 17 17 17 17 17 16 16
16 16 16 16 16 15 15 15 15 15 15 14 14 14 14 15 15 15 15 15 15 15 16 16 15 15 16 16 16 17 18 20 20 18 17 16 16 16 17 17 16 16 16
16 16 15 15 15 15 15 14 14 14 14 14 14 13 14 14 14 15 15 15 15 15 15 15 15 15 15 16 16 16 16 17 18 19 17 17 16 16 17 17 17 16 16
16 15 15 14 14 14 14 14 13 14 14 14 13 13 13 13 13 14 14 14 14 14 14 15 15 15 15 15 16 16 16 15 16 17 19 18 17 16 16 16 16 16 16
15 15 14 14 13 13 13 13 13 13 13 13 13 13 13 13 13 13 13 13 14 14 14 14 14 14 15 15 15 16 16 16 16 17 18 17 18 17 16 16 16 16 16
Wind_Speed
15 20 24 19 18 16 14 13 13 14 15 17 17 17 16 15 15 14 13 12 11 10 9 9 9 9 9 9 10 10 11 11 11 11 11 11 11 11 11 10 9 13 14
18 22 24 20 18 17 15 14 14 14 15 16 17 16 16 15 14 14 13 12 11 10 9 9 9 9 9 9 9 10 11 10 10 11 11 11 11 10 10 7 3 13 13
19 22 23 20 19 17 16 14 14 14 14 14 15 15 14 14 13 13 12 12 11 10 9 9 9 9 8 8 9 9 9 10 10 10 11 10 11 9 9 7 10 13 12
19 21 20 20 18 17 15 14 14 13 13 13 13 14 13 12 12 11 11 11 10 10 9 8 8 8 8 8 8 8 9 9 9 10 10 8 10 11 8 8 10 11 11
18 18 19 20 18 17 15 14 13 13 12 12 12 12 12 12 11 11 11 11 10 9 9 9 8 8 8 8 8 8 8 8 8 10 6 6 7 12 9 9 9 10 10
17 17 20 19 17 16 15 14 13 12 12 12 12 12 12 12 12 11 11 11 10 9 9 8 8 9 9 8 8 8 8 8 10 9 7 7 8 12 10 10 9 9 9
16 15 20 18 16 15 14 13 13 12 12 11 11 11 11 12 12 12 12 11 10 10 9 9 9 9 9 9 9 9 9 10 11 7 7 7 7 11 11 11 11 10 10
15 14 18 17 15 15 14 13 12 12 12 12 11 11 11 11 11 12 12 11 11 10 10 10 10 10 10 11 11 11 11 12 13 9 9 9 10 9 10 12 13 13 12
13 13 15 16 16 14 13 13 13 13 13 13 12 12 12 11 11 11 11 12 12 11 11 11 11 11 12 12 12 12 12 13 14 10 11 9 13 11 11 13 15 15 15
11 12 12 13 14 15 15 15 14 14 14 14 14 14 13 13 13 13 13 13 13 12 13 13 13 13 13 14 14 14 13 13 16 14 12 10 14 12 13 14 16 18 18
11 10 11 12 12 13 13 14 15 15 15 15 15 16 15 15 16 16 18 16 15 15 15 15 15 16 15 17 17 16 15 14 16 14 11 10 14 13 14 14 16 19 20
13 12 10 10 10 11 9 10 11 13 14 15 14 15 15 14 13 14 12 15 16 17 17 18 17 17 17 16 18 19 15 17 16 13 11 11 12 13 15 16 16 18 21
13 12 11 9 7 7 6 6 7 8 9 12 14 14 14 13 13 13 11 13 16 18 17 17 18 17 16 14 12 14 16 15 13 12 12 15 16 16 17 18 17 18 19
9 9 7 5 4 5 5 6 7 7 7 9 11 14 13 9 10 10 9 11 11 12 12 13 11 14 15 15 15 14 15 13 13 12 11 15 17 18 18 18 18 18 19
4 3 2 1 2 3 4 6 7 7 9 11 11 12 14 11 12 11 9 10 12 12 11 11 12 12 13 13 14 15 14 16 15 15 12 15 17 19 20 20 19 19 18
4 3 2 2 3 4 5 6 7 9 10 12 12 14 15 13 11 10 11 10 11 12 12 11 12 12 12 11 14 14 15 16 15 16 16 14 18 19 21 21 20 20 19
6 5 4 4 4 6 7 8 8 9 11 10 12 14 15 15 12 11 11 11 11 12 12 11 12 11 11 12 14 15 13 14 14 15 16 14 14 19 21 20 20 20 20
7 7 7 6 7 7 7 7 7 8 10 10 11 11 13 14 13 10 10 10 10 10 9 10 10 9 10 10 11 11 11 11 13 14 14 14 14 14 18 22 21 20 21
7 6 6 7 7 8 8 7 7 7 7 8 8 8 10 10 10 8 9 9 9 8 9 10 9 8 9 9 10 10 10 11 11 13 13 14 15 14 13 16 21 20 21
6 6 6 7 8 9 8 7 7 7 6 6 6 6 7 6 7 7 7 7 7 7 7 7 8 7 7 8 10 9 9 9 10 11 12 12 12 14 15 14 14 17 21
6 6 7 8 9 8 8 9 9 9 8 7 7 8 7 6 6 6 6 5 6 7 7 7 7 8 8 7 8 8 9 11 11 9 10 10 11 12 13 12 13 12 13
6 6 6 8 9 9 8 8 7 8 8 6 6 7 8 8 8 6 5 4 5 5 6 6 7 8 7 7 7 8 8 8 8 10 9 10 10 10 11 13 12 11 12
5 6 7 8 8 9 9 8 9 8 7 7 8 7 8 8 7 7 7 6 6 7 7 7 8 10 9 8 8 8 7 7 5 7 8 8 8 8 9 9 10 11 12
6 7 8 8 9 9 9 9 10 9 9 9 8 7 8 8 7 7 6 6 6 7 7 8 9 9 10 9 8 8 9 7 5 4 7 8 9 9 9 7 8 9 10
9 10 10 10 10 10 10 10 10 11 10 9 9 8 8 7 6 6 5 5 5 6 7 8 8 9 9 11 9 8 9 8 9 8 6 7 8 8 8 8 7 7 8
11 11 11 11 12 12 12 11 11 12 12 12 11 11 9 7 5 5 5 4 4 5 6 7 8 11 11 11 10 9 8 8 9 9 8 7 7 6 6 6 6 6 6
Wind_Direction
157 151 150 160 161 160 157 154 151 152 157 160 159 158 158 158 156 155 154 153 152 150 144 137 132 131 130 126 124 125 127 128 129 128 125 123 122 122 124 131 150 120 116
152 149 152 160 162 161 159 155 152 151 154 158 159 159 159 159 159 159 160 160 160 159 153 146 139 135 133 131 130 132 135 138 139 138 138 133 129 129 131 137 102 117 129
150 149 156 160 162 162 160 157 154 153 154 156 159 159 159 160 161 164 165 167 168 168 161 155 148 142 138 137 137 140 144 149 152 154 167 153 135 136 136 126 109 126 136
151 151 158 157 162 163 161 159 157 157 158 159 161 162 164 165 167 170 173 174 176 175 168 165 159 152 148 147 148 150 156 161 165 179 187 148 145 139 146 140 135 140 144
150 152 151 158 162 163 163 161 161 161 162 166 168 169 171 173 175 179 181 182 184 182 175 172 170 163 161 160 161 162 166 171 175 211 166 150 142 142 158 157 153 152 152
151 156 151 161 163 164 165 165 165 166 168 172 176 178 181 184 186 189 188 189 189 185 181 180 178 175 173 173 174 177 180 181 198 198 165 175 151 153 170 173 172 169 166
156 157 151 162 164 166 168 169 170 172 176 180 184 187 190 193 195 197 197 197 196 191 188 190 191 188 184 185 189 190 194 200 223 203 183 190 153 152 180 184 186 185 183
156 156 148 161 167 170 172 174 177 180 183 188 192 196 200 202 204 206 205 206 206 202 199 200 203 201 198 198 200 201 204 218 222 219 212 201 150 165 195 197 196 197 194
158 157 156 168 173 176 179 182 185 188 191 194 199 203 208 212 215 217 216 215 215 214 211 211 214 214 211 210 210 210 212 224 245 225 222 216 157 183 209 214 207 204 203
161 163 163 177 177 184 187 189 194 197 199 201 204 207 211 216 221 224 227 220 223 224 223 221 222 222 221 219 218 218 219 223 238 235 225 204 161 191 214 221 217 211 208
164 170 175 179 183 193 197 188 198 205 209 211 213 213 216 223 221 216 223 219 224 230 231 229 228 227 226 224 223 221 220 231 231 240 232 172 167 199 220 227 222 217 212
171 178 181 189 189 199 206 201 211 216 213 219 225 218 219 228 235 233 211 211 225 232 235 234 233 233 232 232 221 216 226 231 241 234 226 170 186 213 225 230 228 222 217
173 180 187 194 199 213 218 228 232 238 235 232 234 233 234 235 234 235 229 215 222 229 234 230 228 232 231 230 229 217 225 232 232 235 224 183 201 219 227 230 231 228 222
174 182 187 191 209 230 251 253 253 252 251 249 242 238 238 236 238 236 233 234 227 227 229 235 231 233 236 234 231 230 230 232 233 232 227 194 206 220 227 230 230 229 226
144 152 166 229 250 270 273 274 271 270 266 262 260 251 246 243 241 237 235 235 237 236 230 231 236 237 238 238 237 233 233 234 238 238 232 205 212 221 227 228 226 225 224
59 51 22 325 313 303 288 283 279 275 268 268 263 255 250 249 247 245 240 235 236 238 241 240 240 241 242 242 241 237 236 234 235 236 238 224 216 221 226 226 225 223 222
47 36 15 340 330 312 300 296 292 288 285 277 272 266 258 253 250 246 246 241 239 239 237 240 243 244 245 244 242 242 238 237 233 232 235 235 227 219 222 224 222 222 221
34 29 15 359 346 328 317 310 306 302 300 292 286 275 262 253 251 250 249 248 245 241 237 237 239 241 245 248 247 246 242 237 237 235 234 231 234 233 218 216 219 221 219
42 33 25 13 356 340 327 318 314 313 309 306 300 290 273 262 260 260 253 251 248 238 237 242 235 240 245 246 247 241 241 238 237 236 232 233 230 232 234 209 211 220 222
56 46 31 21 10 354 350 339 330 330 327 327 325 325 313 287 276 273 263 262 256 245 238 238 249 241 253 251 253 250 238 235 234 235 234 233 229 228 230 229 217 218 218
58 47 33 21 16 5 3 352 345 342 339 344 346 353 348 339 330 289 278 276 266 255 251 249 248 241 242 243 249 250 242 237 237 237 237 241 235 230 232 229 232 233 213
44 30 23 17 12 5 5 347 341 335 329 344 352 359 358 353 347 334 312 289 279 279 267 263 252 261 253 233 244 252 247 229 221 229 227 226 235 230 228 226 228 227 238
17 7 2 357 352 354 346 340 343 336 333 346 351 356 356 354 353 354 338 329 315 296 279 265 252 247 254 241 235 248 254 248 217 197 217 220 217 223 227 223 224 224 226
348 344 342 339 336 333 328 335 337 334 335 336 335 344 346 353 351 349 345 338 324 302 289 273 253 246 246 248 230 235 256 291 270 214 196 203 206 216 229 228 230 223 229
329 329 329 329 326 322 317 311 308 313 318 319 323 324 326 334 336 337 337 336 326 310 299 284 278 254 243 247 245 229 227 230 242 265 231 194 199 210 215 224 236 238 234
320 322 323 325 323 319 311 306 299 300 301 305 306 306 306 307 304 308 311 314 310 306 301 293 280 261 253 249 252 246 231 225 224 230 238 225 217 209 210 224 231 228 230
Height
1512 1514 1515 1519 1521 1524 1526 1529 1532 1534 1536 1538 1540 1541 1543 1544 1545 1546 1547 1548 1549 1550 1551 1552 1553 1554 1555 1555 1556 1556 1557 1557 1557 1558 1559 1559 1560 1560 1561 1562 1563 1564 1564
1512 1513 1515 1519 1522 1525 1527 1529 1532 1535 1537 1539 1540 1542 1543 1545 1546 1547 1548 1548 1549 1551 1552 1553 1554 1555 1555 1556 1557 1557 1558 1558 1559 1560 1560 1561 1562 1562 1563 1564 1565 1566 1566
1512 1513 1516 1520 1523 1526 1528 1530 1533 1535 1537 1539 1541 1543 1544 1545 1547 1548 1548 1549 1550 1551 1552 1553 1554 1555 1556 1556 1557 1558 1559 1559 1560 1561 1562 1565 1564 1564 1565 1566 1566 1567 1568
1514 1516 1518 1521 1524 1527 1529 1532 1534 1536 1538 1540 1541 1543 1544 1546 1547 1548 1549 1550 1550 1552 1553 1554 1555 1555 1556 1557 1558 1559 1559 1560 1561 1563 1565 1567 1567 1566 1566 1567 1568 1569 1570
1517 1519 1520 1523 1526 1528 1531 1533 1535 1537 1538 1540 1541 1543 1544 1545 1547 1548 1549 1550 1551 1552 1553 1554 1555 1556 1556 1557 1558 1559 1560 1561 1562 1564 1567 1568 1568 1567 1567 1568 1569 1570 1572
1519 1522 1522 1524 1527 1530 1532 1534 1536 1537 1539 1540 1541 1542 1544 1545 1546 1547 1548 1549 1551 1552 1553 1554 1554 1555 1556 1557 1558 1560 1561 1562 1563 1567 1568 1568 1569 1568 1568 1569 1570 1571 1573
1521 1524 1524 1526 1529 1531 1533 1535 1536 1538 1539 1540 1541 1542 1544 1545 1546 1547 1548 1549 1550 1551 1552 1553 1554 1555 1556 1557 1558 1560 1561 1562 1564 1567 1568 1568 1568 1568 1568 1569 1571 1572 1573
1524 1526 1525 1527 1529 1531 1533 1535 1536 1537 1539 1540 1541 1542 1543 1544 1545 1546 1547 1548 1549 1550 1551 1552 1553 1554 1555 1557 1558 1559 1560 1561 1564 1566 1567 1568 1567 1567 1568 1569 1570 1572 1573
1525 1528 1527 1528 1530 1531 1533 1534 1536 1537 1538 1539 1540 1541 1542 1543 1544 1545 1546 1547 1548 1549 1550 1551 1552 1553 1554 1555 1556 1557 1558 1560 1562 1565 1566 1567 1566 1566 1568 1569 1570 1571 1572
1525 1528 1528 1531 1531 1532 1533 1533 1535 1536 1537 1537 1538 1539 1540 1541 1542 1542 1543 1544 1545 1546 1547 1548 1549 1551 1552 1553 1554 1555 1556 1557 1559 1563 1563 1564 1563 1564 1566 1567 1569 1570 1571
1523 1526 1528 1530 1530 1532 1533 1533 1534 1534 1535 1536 1537 1537 1538 1539 1540 1540 1541 1542 1543 1544 1545 1546 1547 1548 1549 1550 1551 1552 1553 1555 1558 1559 1560 1560 1560 1562 1563 1565 1566 1567 1569
1522 1525 1526 1529 1530 1531 1533 1533 1533 1533 1534 1534 1535 1535 1535 1536 1538 1539 1538 1538 1539 1540 1541 1542 1543 1544 1545 1547 1548 1548 1550 1552 1554 1555 1556 1555 1556 1558 1559 1561 1563 1565 1566
1523 1524 1526 1528 1529 1530 1531 1531 1532 1532 1532 1531 1532 1532 1532 1533 1533 1534 1535 1535 1535 1536 1537 1539 1539 1540 1542 1543 1544 1545 1546 1548 1549 1550 1551 1550 1552 1554 1555 1557 1559 1561 1563
1524 1525 1526 1526 1526 1527 1528 1529 1529 1529 1529 1529 1528 1527 1528 1528 1528 1529 1530 1531 1531 1532 1533 1535 1535 1536 1537 1538 1539 1540 1541 1542 1544 1545 1546 1545 1547 1549 1551 1552 1554 1556 1558
1524 1524 1525 1525 1525 1525 1525 1525 1525 1525 1525 1525 1523 1522 1522 1522 1523 1523 1523 1524 1526 1528 1529 1529 1530 1531 1531 1533 1534 1535 1535 1536 1537 1539 1540 1540 1542 1544 1546 1547 1549 1551 1553
1522 1523 1523 1524 1524 1523 1523 1523 1522 1522 1520 1519 1518 1517 1516 1516 1516 1517 1517 1518 1519 1521 1523 1524 1524 1525 1526 1527 1528 1529 1530 1531 1531 1533 1534 1536 1537 1538 1540 1542 1544 1546 1548
1523 1523 1523 1524 1523 1522 1521 1520 1519 1518 1516 1514 1512 1510 1509 1508 1509 1510 1511 1512 1513 1515 1516 1517 1518 1519 1520 1521 1522 1523 1524 1525 1525 1526 1528 1531 1532 1533 1535 1537 1539 1541 1543
1524 1523 1523 1523 1522 1521 1519 1517 1516 1514 1511 1508 1505 1502 1501 1501 1502 1503 1504 1505 1507 1509 1510 1512 1513 1513 1514 1515 1516 1517 1518 1519 1520 1521 1523 1524 1527 1529 1530 1531 1534 1535 1538
1525 1524 1524 1523 1521 1519 1518 1515 1513 1511 1507 1504 1501 1498 1495 1494 1495 1497 1497 1499 1501 1502 1504 1506 1508 1509 1510 1510 1511 1512 1512 1513 1514 1516 1517 1519 1521 1523 1525 1526 1527 1530 1532
1526 1525 1524 1523 1520 1519 1517 1514 1512 1509 1506 1502 1499 1495 1491 1489 1490 1491 1491 1493 1495 1498 1500 1501 1503 1504 1505 1506 1508 1509 1509 1509 1510 1511 1513 1515 1516 1517 1519 1522 1523 1524 1526
1527 1526 1524 1522 1520 1518 1515 1513 1510 1508 1505 1501 1497 1493 1491 1488 1486 1486 1487 1488 1491 1494 1495 1497 1499 1500 1501 1503 1504 1505 1505 1505 1506 1507 1508 1510 1512 1513 1515 1516 1518 1520 1521
1528 1526 1524 1522 1520 1517 1515 1512 1509 1506 1504 1501 1497 1493 1491 1488 1487 1485 1485 1485 1487 1489 1491 1493 1495 1497 1498 1500 1501 1501 1501 1502 1501 1502 1503 1504 1506 1508 1510 1512 1513 1514 1516
1528 1526 1524 1521 1518 1516 1514 1512 1509 1506 1503 1500 1496 1493 1490 1488 1486 1484 1483 1483 1484 1486 1488 1490 1492 1493 1495 1497 1498 1499 1498 1497 1497 1498 1499 1500 1501 1504 1506 1508 1509 1510 1511
1527 1525 1522 1519 1517 1515 1512 1510 1508 1505 1502 1499 1495 1492 1489 1487 1485 1483 1482 1481 1481 1483 1484 1486 1488 1489 1491 1493 1494 1494 1496 1496 1496 1495 1496 1497 1498 1499 1502 1504 1506 1506 1507
1526 1523 1521 1517 1515 1512 1510 1507 1505 1503 1500 1498 1494 1491 1488 1485 1483 1481 1480 1479 1479 1479 1480 1482 1483 1485 1487 1489 1490 1491 1491 1492 1494 1494 1493 1495 1495 1497 1498 1499 1501 1502 1503
1523 1520 1518 1515 1511 1509 1506 1504 1501 1499 1496 1494 1491 1489 1487 1484 1482 1479 1477 1476 1476 1476 1476 1476 1478 1479 1481 1483 1485 1487 1488 1489 1490 1491 1491 1492 1493 1494 1494 1495 1496 1497 1498